CAPE
0 0 0 0 0 0 0 0 0 0 0 0 0 0 0 0 0 0 0 0 0 0 0 0 0 0 0 0 0 0 0 0 0 0 0 0 0 0 0 0 0 0 0
0 0 0 0 0 0 0 0 0 0 0 0 0 0 0 0 0 0 0 0 0 0 0 0 0 0 0 0 0 0 0 0 0 0 0 0 0 0 0 0 0 0 0
0 0 0 0 0 0 0 0 0 0 0 0 0 0 0 0 0 0 0 0 0 0 0 0 0 0 0 0 0 0 0 0 0 0 0 0 0 0 0 0 0 0 0
0 0 0 0 0 0 0 0 0 0 0 0 0 0 0 0 0 0 0 0 0 0 0 0 0 0 0 0 0 0 0 0 0 0 0 0 0 0 0 0 0 0 0
0 0 0 0 0 0 0 0 0 0 0 0 0 0 0 0 0 0 0 0 0 0 0 0 0 0 0 0 0 0 0 0 0 0 0 0 0 0 0 0 0 0 0
0 0 0 0 0 0 0 0 0 0 0 0 0 0 0 0 0 0 0 0 0 0 0 0 0 0 0 0 0 0 0 0 0 0 0 0 0 0 0 0 0 0 0
0 0 0 0 0 0 0 0 0 0 0 0 0 0 0 0 0 0 0 0 0 0 0 0 0 0 0 0 0 0 0 0 0 0 0 0 0 0 0 0 0 0 0
0 0 0 0 0 0 0 0 0 0 0 0 0 0 0 0 0 0 0 0 0 0 0 0 0 0 0 0 0 0 0 0 0 0 0 0 0 0 0 0 0 0 0
0 0 0 0 0 0 0 0 0 0 0 0 0 0 0 0 0 0 0 0 0 0 0 0 0 0 0 0 0 0 0 0 0 0 0 0 0 0 0 0 0 0 0
0 0 0 0 0 0 0 0 0 0 0 0 0 0 0 0 0 0 0 0 0 0 0 0 0 0 0 0 0 0 0 0 0 0 0 0 0 0 0 0 0 0 0
0 0 0 0 0 0 0 0 0 0 0 0 0 0 0 0 0 0 0 0 0 0 0 0 0 0 0 0 0 0 0 0 0 0 0 0 0 0 0 0 0 0 0
0 0 0 0 0 0 0 0 0 0 0 0 0 0 0 0 0 0 0 0 0 0 0 0 0 0 0 0 0 0 0 0 0 0 0 0 0 0 0 0 0 0 0
0 0 0 0 0 0 0 0 0 0 0 0 0 0 0 0 0 0 0 0 0 0 0 0 0 0 0 0 0 0 0 0 0 0 0 0 0 0 0 0 0 0 0
0 0 0 0 0 0 0 0 0 0 0 0 0 0 0 0 0 0 0 0 0 0 0 0 0 0 0 0 0 0 0 0 0 0 0 0 0 0 0 0 0 0 0
0 0 0 0 0 0 0 0 0 0 0 0 0 0 0 0 0 0 0 0 0 0 0 0 0 0 0 0 0 0 0 0 0 0 0 0 0 0 0 0 0 0 0
0 0 0 0 0 0 0 0 0 0 0 0 0 0 0 0 0 0 0 0 0 0 0 0 0 0 0 0 0 0 0 0 0 0 0 0 0 0 0 0 0 0 0
0 0 0 0 0 0 0 0 0 0 0 0 0 0 0 0 0 0 0 0 0 0 0 0 0 0 0 0 0 0 0 0 0 0 0 0 0 0 0 0 0 0 0
0 0 4 0 0 0 0 0 0 0 0 0 0 0 0 0 0 0 0 0 0 0 0 0 0 0 0 0 0 0 0 0 0 0 0 0 0 0 0 0 0 0 0
0 0 0 0 0 1 0 0 0 0 0 0 0 0 0 0 0 0 0 0 0 0 0 0 0 0 0 0 0 0 0 0 0 0 0 0 0 0 0 0 0 0 0
0 0 0 6 7 3 5 7 1 0 0 0 0 0 0 0 0 0 0 0 0 0 0 0 0 0 0 0 0 0 0 0 0 0 0 0 0 0 0 0 0 0 0
1 0 1 4 7 7 0 1 3 2 0 0 0 0 0 0 0 0 0 0 0 0 0 0 0 0 0 0 0 0 0 0 0 0 0 0 0 0 0 0 0 0 0
3 3 4 9 6 4 1 2 1 3 2 0 0 0 0 0 0 0 0 0 0 0 0 0 0 0 0 0 0 0 0 0 0 0 0 0 0 0 0 0 0 0 0
1 2 3 3 4 7 9 12 11 8 11 5 1 0 0 0 0 0 0 0 0 0 0 0 0 0 0 0 0 0 0 0 0 0 0 0 0 0 0 0 0 0 0
0 1 1 2 2 3 5 4 11 12 10 9 7 3 0 0 0 0 0 0 0 0 0 0 0 0 0 0 0 0 0 0 0 0 0 0 0 0 0 0 0 0 0
0 2 1 1 1 1 1 3 4 5 2 12 23 21 3 0 1 0 0 0 0 0 0 0 0 0 0 0 0 0 0 0 0 0 0 0 0 0 0 0 0 0 0
0 0 0 1 1 1 0 1 1 1 2 3 4 4 4 3 1 1 0 0 0 0 0 0 0 0 0 0 0 0 0 0 0 0 0 0 0 0 0 0 0 0 0
CIN
-0 -0 -0 -0 -0 -0 -0 -0 -0 -0 -0 -0 -0 -0 -0 -0 -0 -0 -0 -0 -0 -0 -0 -0 -0 -0 -0 -0 -0 -0 -0 -0 -0 -0 -0 -0 -0 -0 -0 -0 -0 -0 -0
-0 -0 -0 -0 -0 -0 -0 -0 -0 -0 -0 -0 -0 -0 -0 -0 -0 -0 -0 -0 -0 -0 -0 -0 -0 -0 -0 -0 -0 -0 -0 -0 -0 -0 -0 -0 -0 -0 -0 -0 -0 -0 -0
-0 -0 -0 -0 -0 -0 -0 -0 -0 -0 -0 -0 -0 -0 -0 -0 -0 -0 -0 -0 -0 -0 -0 -0 -0 -0 -0 -0 -0 -0 -0 -0 -0 -0 -0 -0 -0 -0 -0 -0 -0 -0 -0
-0 -0 -0 -0 -0 -0 -0 -0 -0 -0 -0 -0 -0 -0 -0 -0 -0 -0 -0 -0 -0 -0 -0 -0 -0 -0 -0 -0 -0 -0 -0 -0 -0 -0 -0 -0 -0 -0 -0 -0 -0 -0 -0
-0 -0 -0 -0 -0 -0 -0 -0 -0 -0 -0 -0 -0 -0 -0 -0 -0 -0 -0 -0 -0 -0 -0 -0 -0 -0 -0 -0 -0 -0 -0 -0 -0 -0 -0 -0 -0 -0 -0 -0 -0 -0 -0
-0 -0 -0 -0 -0 -0 -0 -0 -0 -0 -0 -0 -0 -0 -0 -0 -0 -0 -0 -0 -0 -0 -0 -0 -0 -0 -0 -0 -0 -0 -0 -0 -0 -0 -0 -0 -0 -0 -0 -0 -0 -0 -0
-0 -0 -0 -0 -0 -0 -0 -0 -0 -0 -0 -0 -0 -0 -0 -0 -0 -0 -0 -0 -0 -0 -0 -0 -0 -0 -0 -0 -0 -0 -0 -0 -0 -0 -0 -0 -0 -0 -0 -0 -0 -0 -0
-0 -0 -0 -0 -0 -0 -0 -0 -0 -0 -0 -0 -0 -0 -0 -0 -0 -0 -0 -0 -0 -0 -0 -0 -0 -0 -0 -0 -0 -0 -0 -0 -0 -0 -0 -0 -0 -0 -0 -0 -0 -0 -0
-0 -0 -0 -0 -0 -0 -0 -0 -0 -0 -0 -0 -0 -0 -0 -0 -0 -0 -0 -0 -0 -0 -0 -0 -0 -0 -0 -0 -0 -0 -0 -0 -0 -0 -0 -0 -0 -0 -0 -0 -0 -0 -0
-0 -0 -0 -0 -0 -0 -0 -0 -0 -0 -0 -0 -0 -0 -0 -0 -0 -0 -0 -0 -0 -0 -0 -0 -0 -0 -0 -0 -0 -0 -0 -0 -0 -0 -0 -0 -0 -0 -0 -0 -0 -0 -0
-0 -0 -0 -0 -0 -0 -0 -0 -0 -0 -0 -0 -0 -0 -0 -0 -0 -0 -0 -0 -0 -0 -0 -0 -0 -0 -0 -0 -0 -0 -0 -0 -0 -0 -0 -0 -0 -0 -0 -0 -0 -0 -0
-0 -0 -0 -0 -0 -0 -0 -0 -0 -0 -0 -0 -0 -0 -0 -0 -0 -0 -0 -0 -0 -0 -0 -0 -0 -0 -0 -0 -0 -0 -0 -0 -0 -0 -0 -0 -0 -0 -0 -0 -0 -0 -0
-0 -0 -0 -0 -0 -0 -0 -0 -0 -0 -0 -0 -0 -0 -0 -0 -0 -0 -0 -0 -0 -0 -0 -0 -0 -0 -0 -0 -0 -0 -0 -0 -0 -0 -0 -0 -0 -0 -0 -0 -0 -0 -0
-0 -0 -0 -0 -0 -0 -0 -0 -0 -0 -0 -0 -0 -0 -0 -0 -0 -0 -0 -0 -0 -0 -0 -0 -0 -0 -0 -0 -0 -0 -0 -0 -0 -0 -0 -0 -0 -0 -0 -0 -0 -0 -0
-0 -0 -0 -0 -0 -0 -0 -0 -0 -0 -0 -0 -0 -0 -0 -0 -0 -0 -0 -0 -0 -0 -0 -0 -0 -0 -0 -0 -0 -0 -0 -0 -0 -0 -0 -0 -0 -0 -0 -0 -0 -0 -0
-0 -0 -0 -0 -0 -0 -0 -0 -0 -0 -0 -0 -0 -0 -0 -0 -0 -0 -0 -0 -0 -0 -0 -0 -0 -0 -0 -0 -0 -0 -0 -0 -0 -0 -0 -0 -0 -0 -0 -0 -0 -0 -0
-0 -0 -0 -0 -0 -0 -0 -0 -0 -0 -0 -0 -0 -0 -0 -0 -0 -0 -0 -0 -0 -0 -0 -0 -0 -0 -0 -0 -0 -0 -0 -0 -0 -0 -0 -0 -0 -0 -0 -0 -0 -0 -0
-0 -9 -10 -0 -0 -0 -0 -0 -0 -0 -0 -0 -0 -0 -0 -0 -0 -0 -0 -0 -0 -0 -0 -0 -0 -0 -0 -0 -0 -0 -0 -0 -0 -0 -0 -0 -0 -0 -0 -0 -0 -0 -0
-0 -0 -0 -0 -0 -1 -0 -0 -0 -0 -0 -0 -0 -0 -0 -0 -0 -0 -0 -0 -0 -0 -0 -0 -0 -0 -0 -0 -0 -0 -0 -0 -0 -0 -0 -0 -0 -0 -0 -0 -0 -0 -0
-0 -0 -0 -0 -1 -0 -0 -0 -0 -0 -0 -0 -0 -0 -0 -0 -0 -0 -0 -0 -0 -0 -0 -0 -0 -0 -0 -0 -0 -0 -0 -0 -0 -0 -0 -0 -0 -0 -0 -0 -0 -0 -0
-0 -0 -8 -0 -0 -0 -0 -0 -3 -1 -0 -0 -0 -0 -0 -0 -0 -0 -0 -0 -0 -0 -0 -0 -0 -0 -0 -0 -0 -0 -0 -0 -0 -0 -0 -0 -0 -0 -0 -0 -0 -0 -0
-0 -0 -0 -0 -0 -0 -0 -0 -0 -0 -1 -0 -0 -0 -0 -0 -0 -0 -0 -0 -0 -0 -0 -0 -0 -0 -0 -0 -0 -0 -0 -0 -0 -0 -0 -0 -0 -0 -0 -0 -0 -0 -0
-0 -0 -0 -0 -0 -0 -0 -0 -0 -0 -0 -3 -7 -0 -0 -0 -0 -0 -0 -0 -0 -0 -0 -0 -0 -0 -0 -0 -0 -0 -0 -0 -0 -0 -0 -0 -0 -0 -0 -0 -0 -0 -0
-0 -0 -0 -0 -0 -0 -0 -0 -0 -1 -0 -1 -1 -3 -2 -0 -0 -0 -0 -0 -0 -0 -0 -0 -0 -0 -0 -0 -0 -0 -0 -0 -0 -0 -0 -0 -0 -0 -0 -0 -0 -0 -0
-0 -0 -0 -0 -0 -0 -0 -0 -0 -0 -0 -0 -0 -0 -6 -9 -6 -2 -0 -0 -0 -0 -0 -0 -0 -0 -0 -0 -0 -0 -0 -0 -0 -0 -0 -0 -0 -0 -0 -0 -0 -0 -0
-0 -0 -0 -0 -0 -0 -0 -0 -0 -0 -0 -0 -0 -0 -0 -0 -1 -1 -0 -0 -0 -0 -0 -0 -0 -0 -0 -0 -0 -0 -0 -0 -0 -0 -0 -0 -0 -0 -0 -0 -0 -0 -0
Wind_Speed
26 29 27 23 21 22 24 33 35 35 31 26 22 21 21 19 18 17 16 15 14 14 13 12 11 11 10 10 9 9 9 9 13 16 14 12 12 14 16 17 20 22 22
24 26 29 29 27 28 30 31 33 31 30 27 26 24 24 23 22 21 20 19 18 17 16 15 15 13 13 12 12 11 11 10 13 16 16 15 15 14 16 18 20 21 22
30 27 28 29 29 32 35 36 36 36 34 31 29 28 27 26 25 25 24 23 22 20 19 18 18 16 16 15 15 14 13 13 13 16 17 15 15 16 17 19 20 22 22
33 33 31 31 31 32 35 38 38 37 37 34 32 31 31 30 29 28 27 26 26 24 23 22 21 20 20 18 17 16 15 15 15 17 17 18 17 17 18 20 22 22 24
34 33 34 34 33 33 33 36 38 39 39 37 36 35 34 33 32 30 30 29 29 28 27 25 24 23 22 21 20 19 18 18 18 19 20 20 19 19 19 20 22 24 26
35 33 34 35 35 36 35 35 35 37 39 39 39 37 36 35 33 31 31 32 31 31 30 28 27 26 25 24 22 21 20 20 21 21 21 21 20 18 18 20 22 26 29
37 34 35 36 36 37 38 37 36 36 36 38 39 38 39 38 36 34 32 33 33 33 32 31 30 28 27 25 25 24 23 22 21 21 23 21 21 18 18 20 22 24 25
39 37 38 38 38 38 39 40 39 37 37 38 39 39 39 39 36 35 34 34 36 36 35 34 33 31 29 27 26 27 26 25 24 23 23 22 20 18 17 19 21 24 25
42 41 41 41 41 41 40 40 40 41 40 39 39 40 41 41 38 37 35 36 38 37 36 35 34 33 31 29 29 30 30 29 26 25 24 22 20 18 16 19 23 25 27
43 44 44 43 43 43 42 41 39 40 42 41 42 41 41 43 40 38 37 38 40 39 38 38 36 35 34 32 33 33 34 32 30 29 28 25 22 20 18 19 21 24 25
47 47 47 45 45 45 45 43 42 41 40 41 43 43 43 43 42 40 38 39 41 41 41 41 40 37 36 35 35 35 36 32 31 29 28 25 23 21 20 20 19 21 22
50 50 49 48 47 46 47 46 43 42 42 42 42 42 42 42 42 41 39 38 39 42 43 42 42 40 38 37 36 36 34 31 30 30 29 28 26 25 24 22 20 19 19
51 52 51 51 50 48 47 47 46 45 43 43 42 42 42 39 39 39 39 39 38 40 41 41 39 38 37 36 36 34 32 31 31 31 31 30 27 25 22 21 19 19 19
52 52 52 51 52 50 48 48 49 48 47 46 45 44 43 41 39 37 36 36 37 38 41 41 40 39 36 34 33 32 31 31 32 32 31 29 25 23 23 20 21 19 20
52 51 50 50 50 52 52 51 50 49 48 50 47 45 45 45 40 37 35 33 33 33 35 38 39 39 37 35 33 32 32 32 32 31 29 27 26 24 23 20 20 18 21
53 52 50 50 50 51 53 55 52 52 52 51 51 49 47 45 45 42 38 36 32 29 31 33 34 34 34 33 33 32 31 31 30 29 28 27 25 24 22 20 19 20 20
51 52 51 49 50 53 53 54 57 54 50 52 51 50 49 49 46 44 41 39 35 30 32 32 32 31 29 28 28 28 29 27 26 26 26 25 24 22 21 21 20 20 20
50 50 47 49 51 52 54 55 54 55 58 58 52 51 50 49 47 44 41 39 38 34 34 33 33 31 28 28 27 26 26 25 24 24 24 24 24 23 22 22 21 20 19
52 52 52 53 54 54 54 55 54 55 55 56 57 54 50 49 48 44 39 40 41 39 37 36 34 33 30 28 28 26 25 25 24 24 24 24 24 23 23 22 20 19 18
51 54 54 54 54 54 54 53 53 53 54 53 53 53 52 48 49 47 44 42 42 43 40 38 36 34 33 31 29 27 26 25 25 25 24 24 24 23 23 21 20 19 18
48 51 53 53 52 51 49 50 51 51 53 53 52 50 50 52 54 52 50 47 45 44 43 42 39 37 35 33 30 29 28 27 26 25 24 24 23 23 22 21 19 18 17
46 47 48 48 47 48 48 48 49 49 50 52 53 50 50 50 52 54 52 51 49 46 43 41 41 39 37 35 32 30 29 28 26 25 23 23 23 22 21 20 18 17 16
41 43 45 46 47 49 48 46 45 44 45 46 48 51 50 50 50 51 52 52 50 48 44 41 40 40 37 36 34 32 31 30 27 24 23 22 22 22 21 19 17 17 16
39 40 40 41 42 44 45 46 47 47 44 43 45 46 48 49 50 51 50 49 50 49 45 41 38 38 35 33 31 30 29 26 23 22 20 20 19 18 18 17 16 15 15
41 41 40 41 41 41 42 41 42 42 43 44 43 41 43 48 50 50 49 46 45 45 45 44 37 35 33 29 28 27 24 21 19 18 18 18 18 17 16 16 16 16 16
43 44 44 43 42 41 40 39 39 40 39 38 39 41 41 43 46 47 45 42 38 37 36 37 38 32 32 30 26 23 19 16 16 16 15 14 15 15 15 15 16 17 17
Wind_Direction
282 278 275 274 272 272 270 268 264 262 262 259 255 254 254 251 248 250 255 258 256 265 263 258 257 264 269 276 284 290 293 307 318 333 347 349 353 352 357 359 358 356 358
294 286 280 278 276 275 273 271 268 265 262 259 258 254 254 253 252 250 252 258 257 258 259 261 259 267 263 270 275 277 284 292 307 318 328 334 340 347 350 351 352 354 355
301 295 289 283 279 276 274 271 269 267 266 264 260 257 254 253 252 251 253 255 257 258 260 258 261 261 263 266 272 276 280 290 296 310 317 329 333 340 342 345 348 349 352
305 301 293 290 285 280 276 273 271 269 268 266 264 262 261 260 258 256 255 257 259 261 262 261 261 258 261 265 267 270 276 281 288 298 305 313 321 328 335 336 339 345 345
313 309 301 295 291 287 282 278 275 272 270 269 268 267 266 263 262 259 258 258 260 262 263 262 261 259 258 260 263 266 269 275 283 289 298 307 312 320 323 333 334 339 342
313 316 312 306 298 291 288 284 281 277 274 271 269 268 267 266 264 258 259 261 261 261 261 261 262 258 256 255 254 260 259 266 275 285 293 297 301 308 318 324 330 334 338
310 314 315 314 306 300 293 288 284 282 280 276 273 270 269 268 267 263 258 263 264 261 262 263 262 262 256 258 255 257 261 260 267 275 284 288 298 301 312 318 324 328 331
308 310 311 311 308 306 301 295 289 285 282 280 278 275 273 271 268 264 263 262 267 267 265 264 264 264 261 257 260 260 262 263 264 273 276 286 291 298 300 310 318 324 330
305 307 308 308 306 305 304 300 297 290 285 283 282 279 276 275 272 267 264 265 264 266 266 264 263 264 263 256 261 262 264 267 269 270 276 283 292 295 300 312 315 320 324
304 304 305 306 304 303 302 303 302 298 291 287 284 282 280 279 276 272 267 267 266 266 267 268 261 261 260 255 257 262 265 265 266 270 272 276 279 285 288 295 305 311 319
300 301 301 303 302 302 301 301 301 300 298 293 288 286 283 281 280 277 271 268 268 270 269 269 269 262 260 256 253 261 262 270 267 267 270 273 277 279 284 292 296 303 309
299 297 297 298 299 300 299 298 299 300 299 297 295 292 289 286 283 280 276 270 270 270 271 273 273 270 264 260 257 262 265 265 266 266 268 269 272 276 281 286 291 297 304
297 297 296 295 295 296 296 296 296 297 296 296 296 295 295 294 291 286 280 276 272 270 272 274 275 273 268 264 258 259 262 262 264 264 264 267 269 275 280 285 291 297 303
295 295 295 295 294 294 293 294 293 293 294 294 294 294 295 296 295 294 289 284 279 276 275 275 274 275 270 266 264 258 259 261 262 264 265 269 272 273 274 279 286 292 299
296 295 295 295 295 294 292 291 291 290 290 289 290 292 292 292 295 296 294 291 288 284 282 279 276 274 272 270 267 263 262 263 264 267 267 266 266 268 273 274 282 286 295
296 295 294 295 296 295 294 291 290 289 288 287 286 287 289 290 291 292 292 291 289 287 286 284 281 276 271 268 266 265 264 263 263 265 264 263 262 262 266 270 276 281 287
296 295 294 293 294 295 295 293 291 289 289 286 287 286 286 286 288 289 290 288 287 284 283 284 283 281 277 272 268 265 263 262 261 261 259 258 258 260 261 268 274 280 287
300 298 296 296 295 294 294 293 291 290 288 286 287 286 285 285 286 287 288 286 283 281 281 281 282 281 278 275 272 269 268 265 260 259 258 255 253 256 261 265 270 275 282
296 296 296 296 295 293 293 293 291 291 290 288 286 285 284 284 283 283 284 283 281 279 278 279 279 279 276 275 274 272 269 265 263 259 258 253 253 254 260 265 267 270 277
297 295 296 296 295 293 293 292 291 291 290 290 289 286 284 284 281 280 279 279 280 279 277 277 277 276 275 273 272 270 270 267 263 261 259 256 255 256 260 261 265 268 273
303 300 299 298 296 295 295 293 292 291 290 290 289 288 287 284 281 279 278 277 277 278 277 274 274 274 273 271 269 268 267 267 265 264 261 257 254 256 260 262 265 268 273
304 303 302 302 301 299 297 295 294 292 290 290 290 290 289 288 285 281 278 276 275 275 276 273 271 271 271 268 266 266 266 266 265 262 260 256 255 255 257 260 263 266 269
316 311 307 304 300 294 295 297 297 296 296 295 292 290 289 289 288 285 281 278 276 273 272 271 269 269 270 268 266 264 264 265 264 260 256 252 252 253 255 256 256 262 267
336 330 324 323 319 308 306 305 300 296 297 298 296 295 293 291 289 287 284 280 276 273 269 268 268 267 268 268 266 265 266 265 261 255 251 248 248 248 253 255 255 258 268
352 347 343 339 331 328 323 317 313 313 305 300 299 302 300 294 291 289 286 282 278 274 268 264 264 266 265 266 265 265 262 256 254 248 246 243 246 245 247 253 257 264 274
359 358 357 355 348 343 338 333 332 332 323 316 311 312 314 308 300 292 287 283 282 277 271 268 265 262 262 263 263 260 250 244 242 238 237 239 239 246 250 253 262 274 278